Regional Weather Roundup
Issued by NWS Northern Indiana

Home | Current Version | Previous Version | Graphics & Text | Print | Product List | Glossary On
Versions: 1 2 3 4 5 6 7 8 9 10 11 12 13 14 15 16 17 18 19 20 21 22 23 24 25 26 27 28 29 30 31 32 33 34 35 36 37 38 39 40 41 42 43 44 45 46 47 48 49 50
000
ASUS43 KIWX 190910
RWRIWX

KIWX WEATHER ROUNDUP
NATIONAL WEATHER SERVICE NORTHERN INDIANA
400 AM EST SUN FEB 19 2017

NOTE: "FAIR" INDICATES FEW OR NO CLOUDS BELOW 12,000 FEET WITH NO
SIGNIFICANT WEATHER AND/OR OBSTRUCTIONS TO VISIBILITY.

* THESE STATIONS ARE NOT UNDER NWS QUALITY CONTROL. THEY ALSO MAY NOT
  REPORT WEATHER SUCH AS PRECIPITATION OR FOG.

INZ001>027-191000-
NORTHERN INDIANA

CITY           SKY/WX    TMP DP  RH WIND       PRES   REMARKS
GARY*          CLEAR     35  33  94 CALM      29.91R
VALPARAISO     CLOUDY    39  35  86 NW3       29.90S
MICHIGAN CITY* CLOUDY    32  32 100 CALM      29.91R
LAPORTE*       CLOUDY    32  30  92 CALM      29.90S
KNOX*            N/A     36  30  80 CALM      29.91R
SOUTH BEND     CLOUDY    32  28  85 W3        29.90R
GOSHEN         PTCLDY    38  34  85 S3        29.89R FOG
MONTICELLO*    FOG       44  43  96 SW7       29.92R VSB 1/4
LOGANSPORT*    CLOUDY    45  45 100 W12       29.93R FOG
ROCHESTER*     PTCLDY    45  43  93 W3        29.92R
WARSAW*        CLEAR     41  39  93 W3        29.90R
ANGOLA*        CLEAR     34  34 100 CALM      29.88R
FORT WAYNE     PTCLDY    40  38  93 W6        29.90R
HUNTINGTON*    PTCLDY    44  43  96 W8        29.91R
PERU/GRISSOM   CLOUDY    46  46 100 W13       29.91R FOG
MARION*        CLOUDY    46  45  95 W10       29.93R FOG

$$
INZ028>050-191000-
CENTRAL INDIANA

CITY           SKY/WX    TMP DP  RH WIND       PRES   REMARKS
LAFAYETTE      CLOUDY    46  46 100 W7        29.94R FOG
KOKOMO*        CLOUDY    48  46  93 W13       29.93R FOG
MUNCIE*        CLOUDY    49  45  86 W9        29.92R
INDIANAPOLIS   CLOUDY    48  46  93 W10       29.95R

$$
MIZ043>046-050>051-056>058-064>065-071>073-077>080-191000-
SOUTHWEST LOWER MICHIGAN

CITY           SKY/WX    TMP DP  RH WIND       PRES   REMARKS
BATTLE CREEK   CLOUDY    39  34  82 W8        29.87R
BENTON HARBOR  CLEAR     31  28  89 CALM      29.89R
COLDWATER*     CLEAR     34  32  94 SW3       29.88R
HILLSDALE*     CLEAR     36  32  87 NW5       29.86R
HOLLAND        CLEAR     37  31  78 W3        29.88R
GRAND RAPIDS   CLEAR     34  30  85 W7        29.86R WCI  28
KALAMAZOO      CLEAR     32  28  85 CALM      29.88R
STURGIS*       PTCLDY    35  33  94 CALM      29.87R
THREE RIVERS*  FAIR      31  30  96 CALM      29.88R

$$
OHZ001>008-015>018-024>025-191000-
NORTHWEST OHIO

CITY           SKY/WX    TMP DP  RH WIND       PRES   REMARKS
WAUSEON*       FAIR      41  37  87 SW7       29.87R
DEFIANCE       CLEAR     42  38  85 CALM      29.89R
FINDLAY        CLEAR     46  40  79 W10       29.88R
TOLEDO EXPRESS CLEAR     41  39  93 SW5       29.86R
TOLEDO METCALF CLEAR     41  38  89 SW8       29.88R
LIMA           PTCLDY    44  43  96 SW8       29.90R

$$
AND FOR LAKE MICHIGAN COASTAL AND OPEN LAKE BUOY OBSERVATIONS

STATION/POSITION TEMP    WIND        PRES    VSBY  WAVE
                 AIR SEA DIR/SP/G                  HT/PER
                 (F)     (DEG/KT/KT) (MB)    (MI)  (FT/S)
CALUMET HARBOR    43     200/  3/  4 1011.9R
MICHIGAN CITY     41     150/  4/  4   N/A
BURNS HARBOR      42     180/  8/  9 1012.9S
SAINT JOSEPH      43     210/  1/  3 1013.2

$$
&&



USA.gov is the U.S. government's official web portal to all federal, state and local government web resources and services.